Weather in Kambileevskoe

Russia / Republic of North Ossetia — Alania     43°04′10″N   44°45′18″E
temp.,
°C
wind,
m/s
gust,
m/s
humid.,
%
clouds,
%
prec.,
mm/h
press.,
hPa
HPBL,
m
6 march, sat
sat600:00+1s22540 0.0 102027
03:00+1s33540 0.0 102130
06:00+1s324933 0.0 102127
09:00+7s225040 0.0 101968
12:00+12n22340 0.0 1016765
15:00+12ene22400 0.0 1014843
18:00+6s3354100 0.0 101569
21:00+4s3349100 0.0 101580
7 march, sun
sun700:00+3s3351100 0.0 101565
03:00+2s2254100 0.0 101635
06:00−1nw479873 1.6 1020487
09:00−2nw239286 4.6 1022400
12:00−3nnw3487100 2.1 1021552
15:00−2n2267100 2.9 1021885
18:00−4ene117292 0.1 1022291
21:00−5s117978 0.4 1024100
8 march, mon
mon800:00−6s11760 0.0 102475
03:00−6sw11790 0.0 102496
06:00−7sw11830 0.0 1023120
09:00−3n11745 0.0 1022487
12:000nne226563 0.0 1019715
15:00+1ne226564 0.1 1016794
18:00−1ne127593 0.1 1017229
21:00−2se118596 0.1 1018128
9 march, tue
tue900:00−3sse118499 0.0 1018100
03:00−3s118899 0.3 101778
06:00−3wnw0193100 0.3 1018100
09:00−1nne118196 0.4 1018429
12:00+1nne127195 0.1 1016683
15:00+2ne126898 0.3 1015830
18:000ese117478 0.1 1017275
21:00−2s127276 0.1 102152
10 march, wed
wed1000:00−3se119298 1.0 1022109
03:00−4nw029599 3.3 1023146
06:00−4w0196100 2.3 1025150
09:00−3nw2394100 3.8 1024370
12:00−2n2394100 1.2 1022450
15:00−2ne3589100 2.6 1020588
18:00−4ene2591100 0.4 1020357
21:00−4ne1395100 0.6 1020302